| time (UTC) | temp F | wind direction | speed MPH | gust MPH | rain 1hr in | rain 24hr in | rain mn in | humidity % | barometer mb |
| 20260503051850 | 45 | 340 | 7.0 | 0.0 | 0.00 | 0.00 | 0.00 | 71 | 1023.0 |
| 20260503050353 | 0 | 0.0 | 0.0 | 0.00 | 0.00 | 0.00 | |||
| 20260503044850 | 39 | 330 | 9.0 | 0.0 | 0.00 | 0.00 | 0.00 | 70 | 1022.0 |
| 20260503043354 | 39 | 330 | 9.0 | 0.0 | 0.00 | 0.00 | 0.00 | 70 | 1022.0 |
| 20260503041853 | 39 | 330 | 9.0 | 0.0 | 0.00 | 0.00 | 0.00 | 70 | 1022.0 |
| 20260503040416 | 39 | 330 | 9.0 | 0.0 | 0.00 | 0.00 | 0.00 | 70 | 1022.0 |
| 20260503034849 | 37 | 330 | 9.0 | 0.0 | 0.00 | 0.00 | 0.00 | 75 | 1022.0 |
| 20260503033353 | 37 | 330 | 9.0 | 0.0 | 0.00 | 0.00 | 0.00 | 75 | 1022.0 |
| 20260503031847 | 37 | 330 | 9.0 | 0.0 | 0.00 | 0.00 | 0.00 | 75 | 1022.0 |
| 20260503030353 | 37 | 330 | 9.0 | 0.0 | 0.00 | 0.00 | 0.00 | 75 | 1022.0 |
| 20260503024905 | 36 | 30 | 7.0 | 0.0 | 0.00 | 0.00 | 0.00 | 81 | 1023.0 |
| 20260503023354 | 0 | 0.0 | 0.0 | 0.00 | 0.00 | 0.00 | |||
| 20260503021850 | 0 | 0.0 | 0.0 | 0.00 | 0.00 | 0.00 | |||
| 20260503020353 | 0 | 0.0 | 0.0 | 0.00 | 0.00 | 0.00 | |||
| 20260503014847 | 0 | 0.0 | 0.0 | 0.00 | 0.00 | 0.00 | |||
| 20260503013353 | 0 | 0.0 | 0.0 | 0.00 | 0.00 | 0.00 | |||
| 20260503011851 | 0 | 0.0 | 0.0 | 0.00 | 0.00 | 0.00 | |||
| 20260503010354 | 0 | 0.0 | 0.0 | 0.00 | 0.00 | 0.00 | |||
| 20260503004847 | 0 | 0.0 | 0.0 | 0.00 | 0.00 | 0.00 | |||
| 20260503003353 | 0 | 0.0 | 0.0 | 0.00 | 0.00 | 0.00 | |||
| 20260503001850 | 0 | 0.0 | 0.0 | 0.00 | 0.00 | 0.00 | |||
| 20260503000353 | 0 | 0.0 | 0.0 | 0.00 | 0.00 | 0.00 | |||
| 20260502234853 | 0 | 0.0 | 0.0 | 0.00 | 0.00 | 0.00 | |||
| 20260502233353 | 0 | 0.0 | 0.0 | 0.00 | 0.00 | 0.00 | |||
| 20260502231854 | 0 | 0.0 | 0.0 | 0.00 | 0.00 | 0.00 | |||
| 20260502230354 | 0 | 0.0 | 0.0 | 0.00 | 0.00 | 0.00 | |||
| 20260502224850 | 0 | 0.0 | 0.0 | 0.00 | 0.00 | 0.00 | |||
| 20260502223353 | 0 | 0.0 | 0.0 | 0.00 | 0.00 | 0.00 | |||
| 20260502221853 | 0 | 0.0 | 0.0 | 0.00 | 0.00 | 0.00 | |||
| 20260502220353 | 0 | 0.0 | 0.0 | 0.00 | 0.00 | 0.00 | |||
| 20260502214853 | 0 | 0.0 | 0.0 | 0.00 | 0.00 | 0.00 | |||
| 20260502213354 | 0 | 0.0 | 0.0 | 0.00 | 0.00 | 0.00 | |||
| 20260502211853 | 0 | 0.0 | 0.0 | 0.00 | 0.00 | 0.00 | |||
| 20260502210353 | 0 | 0.0 | 0.0 | 0.00 | 0.00 | 0.00 | |||
| 20260502204850 | 43 | 10 | 5.0 | 0.0 | 0.00 | 0.00 | 0.00 | 71 | 1023.0 |
| 20260502203353 | 0 | 0.0 | 0.0 | 0.00 | 0.00 | 0.00 | |||
| 20260502201854 | 0 | 0.0 | 0.0 | 0.00 | 0.00 | 0.00 | |||
| 20260502200353 | 0 | 0.0 | 0.0 | 0.00 | 0.00 | 0.00 | |||
| 20260502194853 | 43 | 10 | 5.0 | 0.0 | 0.00 | 0.00 | 0.00 | 71 | 1023.0 |
| 20260502193354 | 43 | 10 | 5.0 | 0.0 | 0.00 | 0.00 | 0.00 | 71 | 1023.0 |
| 20260502191853 | 43 | 10 | 5.0 | 0.0 | 0.00 | 0.00 | 0.00 | 71 | 1023.0 |
| 20260502190353 | 43 | 10 | 5.0 | 0.0 | 0.00 | 0.00 | 0.00 | 71 | 1023.0 |
| 20260502184854 | 43 | 70 | 7.0 | 0.0 | 0.00 | 0.00 | 0.00 | 71 | 1022.0 |
| 20260502183353 | 43 | 70 | 7.0 | 0.0 | 0.00 | 0.00 | 0.00 | 71 | 1022.0 |
| 20260502181854 | 43 | 70 | 7.0 | 0.0 | 0.00 | 0.00 | 0.00 | 71 | 1022.0 |
| 20260502180353 | 43 | 70 | 7.0 | 0.0 | 0.00 | 0.00 | 0.00 | 71 | 1022.0 |
| 20260502170353 | 48 | 50 | 9.0 | 0.0 | 0.00 | 0.00 | 0.00 | 54 | 1022.0 |
| 20260502163353 | 52 | 40 | 9.0 | 0.0 | 0.00 | 0.00 | 0.00 | 44 | 1022.0 |
| 20260502161853 | 52 | 40 | 9.0 | 0.0 | 0.00 | 0.00 | 0.00 | 44 | 1022.0 |
| 20260502160354 | 52 | 40 | 9.0 | 0.0 | 0.00 | 0.00 | 0.00 | 44 | 1022.0 |
| 20260502151853 | 55 | 10 | 18.0 | 0.0 | 0.00 | 0.00 | 0.00 | 36 | 1022.0 |
| 20260502150353 | 55 | 10 | 18.0 | 0.0 | 0.00 | 0.00 | 0.00 | 36 | 1022.0 |
| 20260502130354 | 54 | 10 | 16.0 | 0.0 | 0.00 | 0.00 | 0.00 | 44 | 1022.0 |
| 20260502123353 | 54 | 10 | 21.0 | 0.0 | 0.00 | 0.00 | 0.00 | 54 | 1023.0 |
| 20260502121853 | 54 | 10 | 21.0 | 0.0 | 0.00 | 0.00 | 0.00 | 54 | 1023.0 |
| 20260502120401 | 54 | 10 | 21.0 | 0.0 | 0.00 | 0.00 | 0.00 | 54 | 1023.0 |
| 20260502114847 | 52 | 360 | 14.0 | 0.0 | 0.00 | 0.00 | 0.00 | 67 | 1023.0 |
| 20260502113353 | 52 | 360 | 14.0 | 0.0 | 0.00 | 0.00 | 0.00 | 67 | 1023.0 |
| 20260502111853 | 52 | 360 | 14.0 | 0.0 | 0.00 | 0.00 | 0.00 | 67 | 1023.0 |
| 20260502110353 | 0 | 0.0 | 0.0 | 0.00 | 0.00 | 0.00 | |||
| 20260502104853 | 52 | 60 | 11.0 | 0.0 | 0.00 | 0.00 | 0.00 | 58 | 1023.0 |
| 20260502103354 | 52 | 60 | 11.0 | 0.0 | 0.00 | 0.00 | 0.00 | 58 | 1023.0 |
| 20260502101850 | 52 | 60 | 11.0 | 0.0 | 0.00 | 0.00 | 0.00 | 58 | 1023.0 |
| 20260502100353 | 52 | 60 | 11.0 | 0.0 | 0.00 | 0.00 | 0.00 | 58 | 1023.0 |
| 20260502090353 | 0 | 0.0 | 0.0 | 0.00 | 0.00 | 0.00 | |||
| 20260502070354 | 52 | 30 | 14.0 | 0.0 | 0.00 | 0.00 | 0.00 | 62 | 1023.0 |
| 20260502064853 | 48 | 2.0 | 0.0 | 0.00 | 0.00 | 0.00 | 71 | 1023.0 | |
| 20260502063353 | 48 | 2.0 | 0.0 | 0.00 | 0.00 | 0.00 | 71 | 1023.0 | |
| 20260502061854 | 48 | 2.0 | 0.0 | 0.00 | 0.00 | 0.00 | 71 | 1023.0 | |
| 20260502060354 | 0 | 0.0 | 0.0 | 0.00 | 0.00 | 0.00 | |||
| 20260502054853 | 45 | 60 | 5.0 | 0.0 | 0.00 | 0.00 | 0.00 | 76 | 1023.0 |
| 20260502053354 | 45 | 60 | 5.0 | 0.0 | 0.00 | 0.00 | 0.00 | 76 | 1023.0 |